SCOUT A DEB, 3213

Orbit data source: Space-Track

SCOUT A DEB, 3213 is space debris in LEO originally from a launch on Sat, 02 Mar 1968 UTC launched from the Air Force Western Test Range (AFWTR). Debris objects in space refer to the collection of defunct objects orbiting the Earth. Examples of debris include non-operational satellites, rocket bodies, and fragments generated from explosions, collisions, or faulty payload assembly.

Loading next visibility...
SCOUT A DEB details
Identifier
3213, 1968-012C
Orbit
LEO
Last TLE update13 hours ago
Origin
Flag of USUSN NAVAIR (US)
ManufacturerUnknown
MissionSpacecraft
Bus & MotorUnknown
MassUnknown
Launch date (UTC)
1968-03-02 (57 years ago)
Launch vehicleUnknown
Launch site
Air Force Western Test Range (AFWTR)
Object type
Payload
Rocket body
Debris
Shape & HBRUnknown
Radar Cross SectionSmall (<0.1 m²)

Expand to show TLE details & history

TLE from 13 hours ago
0 SCOUT A DEB
1  3213U 68012C   24356.09055220  .00000786  00000-0  63846-3 0  9990
2  3213  90.2334 100.7251 0050228 222.3460 194.8734 13.88726837800056
Epoch: 2024-12-21T02:10Z
Definitive object data (Epoch: 2024-12-21T02:10:23.71Z)
Latitude57.16573°
Longitude-22.38021°
Altitude978.291 km
Speed7.35 km/s
True Right ascension06h 41m 27s
True Declination57° 00' 49"
Sunlit
Object was in full shadow at TLE epoch
Visualization TLE readout
Latitude-66.49509°
Longitude157.45937°
Altitude925.252 km
Speed7.405 km/s
Apparent Right ascension23h 50m 59s
Apparent Declination-66° 45' 55"
Sunlit
Object is in daylight
Visualization observer readout
Local Sidereal Time14:13:22
Azimuth155.288° SSE
Elevation-56.685°
Doppler factor1
Orbital elements
Apogee altitude966.797 km
Perigee altitude893.382 km
Semi-major axis7,308.227 km
Eccentricity0.0050228
Inclination90.2334°
RAAN100.7251°
Arg. of periapsis222.346°
True anomaly194.72655°
Mean anomaly194.8734°
Eccentric anomaly194.79989°
Mean motion3.47396 °/min
BSTAR0.00063846
Orbital period103.63 mins
Loading maneuver chart data...
Loading historical data...
Loading historical data...
Loading historical data...
Loading historical data...
Loading historical data...
Loading historical data...
Loading historical data...

SCOUT A DEB Visibility forecast

Observer location: undefined°, undefined

Span
Click to sort rows by Start time (UTC) header in descending order
Start Az.
Max El. time (UTC)
Max El. Az.
Max El.
End time (UTC)
End Az.
5 mins2024-12-21 18:05:07.082Z49.056° ENE2024-12-21 18:08:07.082Z81.042° E14.203°2024-12-21 18:10:07.082Z102.607° ESE
10 mins2024-12-21 19:47:07.082Z357.321° N2024-12-21 19:52:07.082Z260.455° W43.7°2024-12-21 19:57:07.082Z192.57° SSW
10 mins2024-12-22 07:25:07.082Z168.64° S2024-12-22 07:29:07.082Z107.231° ESE44.322°2024-12-22 07:35:07.082Z0.488° NNE
4 mins2024-12-22 09:12:07.082Z268.092° W2024-12-22 09:13:07.082Z278.801° WNW14.06°2024-12-22 09:16:07.082Z309.766° NW
|